SCOUT B-1 DEB, 8868

Orbit data source: Space-Track

SCOUT B-1 DEB, 8868 is space debris in SSO originally from a launch on Sat, 22 May 1976 UTC launched from the Air Force Western Test Range (AFWTR). Debris objects in space refer to the collection of defunct objects orbiting the Earth. Examples of debris include non-operational satellites, rocket bodies, and fragments generated from explosions, collisions, or faulty payload assembly.

Loading next visibility...
Identifier
8868, 1976-047D
Orbit
SSO
Country
Flag of USUS
Related business
Manufacturer
Unknown
Mission
Spacecraft
Bus & Motor
Unknown
Mass
Unknown
Launch date (UTC)
1976-05-22 (50 years ago)
Launch vehicle
Unknown
Launch site
Air Force Western Test Range (AFWTR)
Object type
Payload
Rocket body
Debris
Shape & HBR
Unknown shape, 0.1 m
Radar Cross Section
Medium (>0.1 m² and <1 m²)

Expand to show TLE details & history
Last TLE update: 2 days ago

TLE from 2 days ago
0 SCOUT B-1 DEB
1  8868U 76047D   26171.35302332  .00000119  00000-0  15721-3 0  9992
2  8868 100.0672 315.1327 0049001 265.2839 123.6150 13.81698640517983
Epoch: 2026-06-20T08:28Z
TLE epoch observation values (Epoch: 2026-06-20T08:28:21.214Z)
Latitude
28.91659°
Longitude
-86.12343°
Altitude
981.386 km
Speed
7.354 km/s
True Right ascension
20h 38m 08s
True Declination
28° 46' 32"
Sunlit
Object was in daylight at epoch
Visualization orbit readout
Latitude
Unknown
Longitude
Unknown
Altitude
Unknown
Speed
Unknown
Apparent Right ascension
Unknown
Apparent Declination
Unknown
Sunlit
N/A
Visualization observer readout
Local Sidereal Time
23:08:28
Azimuth
Unknown
Elevation
Unknown
Doppler factor
Unknown
Orbital elements
Apogee altitude
991.08 km
Perigee altitude
919.213 km
Semi-major axis
7,333.284 km
Eccentricity
0.0049
Inclination
100.0672°
RAAN
315.1327°
Arg. of periapsis
265.2839°
True anomaly
124.08103°
Mean anomaly
123.615°
Eccentric anomaly
123.84817°
Mean motion
3.45617 °/min
Orbital period
104.16 mins
BSTAR
0.00015721
Loading maneuver chart data...
Computing Atmospheric mass density...
Loading historical data...
Loading historical data...
Loading historical data...
Loading historical data...
Loading historical data...
Loading historical data...
Loading historical data...
Other satellites on launch #47 in the year 1976 (1976-05-22 UTC)

Documentation

Showing up to 5 results
|